Regional Weather Roundup
Issued by NWS Wakefield, VA

Home | Current Version | Previous Version | Graphics & Text | Print | Product List | Glossary On
Versions: 1 2 3 4 5 6 7 8 9 10 11 12 13 14 15 16 17 18 19 20 21 22 23 24 25 26 27 28 29
000
ASUS41 KAKQ 221115
RWRAKQ

REGIONAL WEATHER ROUNDUP
NATIONAL WEATHER SERVICE WAKEFIELD VA
600 AM EST WED FEB 22 2017

Note: "fair" indicates few or no clouds below 12,000 feet with no
significant weather and/or obstructions to visibility. * = Denotes
station may not report precipitation (e.g., rain,snow,etc.),
thunder or fog.

VAZ042-051-052>054-056-221200-
NORTHERN VIRGINIA

CITY           SKY/WX    TMP DP  RH WIND       PRES   REMARKS
WASH NATIONAL  CLOUDY    47  41  80 CALM      30.05R
DULLES         CLOUDY    45  38  76 CALM      30.02S
FORT BELVOIR   PTCLDY    46  39  75 CALM      30.04R
QUANTICO       CLOUDY    45  43  93 S7        30.05S
FREDERICKSBRG* CLOUDY    43  40  89 CALM      30.03S
STAFFORD*      CLOUDY    43  39  86 CALM      30.07S
WARRENTON      DRIZZLE   48  39  73 CALM      30.01S
CULPEPER*      LGT RAIN  47  44  90 CALM      30.03S
MANASSAS*      LGT RAIN  46  41  82 SE3       30.02F
LEESBURG*      CLOUDY    46  41  81 MISG      30.03R
WINCHESTER     PTCLDY    43  36  75 CALM      29.99S
FRONT ROYAL*   MOSUNNY   54  41  62 SW3       29.98R
LURAY*         CLOUDY    52  45  76 SW9       30.00S
$$

VAZ048-049-060>072-079>083-221200-
CENTRAL AND SOUTH CENTRAL VIRGINIA

CITY           SKY/WX    TMP DP  RH WIND       PRES   REMARKS
RICHMOND       CLOUDY    42  41  96 CALM      30.04S
CHESTERFIELD*  FAIR      41  25  52 CALM      30.06S
PETERSBURG*    CLOUDY    36  35  96 CALM      30.05S
HANOVER        PTCLDY    45  39  79 S3        30.06R
TAPPAHANNOCK*  PTCLDY    39  39 100 S3        30.05S
QUINTON*       FAIR      40  40 100 MISG      30.05S
CHARLOTTSVILLE LGT RAIN  49  39  68 S3        30.01S
GORDONSVILLE*  CLOUDY    45  40  85 CALM      30.02S
ORANGE*        CLOUDY    46  39  76 CALM      30.03S
LOUISA*        PTCLDY    48  45  87 CALM      30.02S
BUMPASS*       FAIR      42  40  93 CALM      30.04S
FARMVILLE*     PTCLDY    41  40  93 CALM      30.03R
CREWE*         FAIR      40  40 100 CALM      30.03S
FORT PICKETT*  FAIR     N/A N/A N/A CALM      30.04S
CHASE CITY*    CLOUDY    46  45  95 CALM      30.04S
CLARKSVILLE*   CLOUDY    46  46 100 CALM      30.04S
SOUTH HILL*    MOCLDY    42  42 100 CALM      30.10S
LAWRENCEVILLE* CLOUDY    45  43  92 CALM      30.04F
EMPORIA*       CLOUDY    45  41  87 CALM      30.07S FOG
$$

VAZ088>098-221200-
SOUTHEAST VIRGINIA

CITY           SKY/WX    TMP DP  RH WIND       PRES   REMARKS
NORFOLK        CLOUDY    50  48  93 S5        30.04F
VIRGINIA BEACH MOCLDY    50  48  93 S3        30.05S
NORFOLK NAVAL  CLOUDY    51  48  89 S6        30.05F
WEST POINT*    PTCLDY    40  39  95 CALM      30.07S
SALUDA*        PTSUNNY   44  44 100 CALM      30.05S
NEWPORT NEWS   PTCLDY    42  41  96 CALM      30.05S
LANGLEY AFB    CLOUDY    47  47  99 CALM      30.04S
FORT EUSTIS    PTCLDY    45  41  86 CALM      30.02S
WILLIAMSBURG*  CLOUDY    45  43  93 CALM      30.06S
HR EXEC AP*    CLOUDY    48  46  93 S5        30.04S
FRANKLIN*      CLOUDY    46  43  91 CALM      30.06S
US460-WAKEFLD  CLOUDY    45  43  93 CALM      30.05S
$$

VAZ020-022-025-037-045-221200-
WEST CENTRAL AND SOUTHWEST VIRGINIA

CITY           SKY/WX    TMP DP  RH WIND       PRES   REMARKS
STAUNTON*      LGT RAIN  47  41  79 CALM      30.04R
WAYNESBORO*    CLOUDY    46  44  95 CALM      30.02R
HOT SPRINGS VA RAIN      45  41  87 W14       30.03R
LYNCHBURG      MOCLDY    44  39  82 CALM      30.05R
DANVILLE       LGT RAIN  45  45 100 SE3       30.05R
SOUTH BOSTON*  CLOUDY    44  43  95 CALM      30.05R
MARTINSVILLE   CLOUDY    44  39  85 CALM      30.06S
ROANOKE        CLOUDY    49  40  71 CALM      30.05S
BLACKSBURG     LGT RAIN  47  41  78 CALM      30.06S
DUBLIN*        CLOUDY    47  42  80 CALM      30.05R
MARION*        DRIZZLE   48  42  80 CALM      30.05R
HILLSVILLE*    CLOUDY    48  39  70 CALM      30.02R
RICHLANDS*     RAIN      51  44  79 CALM      30.01R
WISE*          LGT RAIN  50  45  81 CALM      30.01R
ABINGDON*      LGT RAIN  54  43  66 E5        30.00R
$$

MDZ021>025-VAZ099-100-221200-
SOUTHERN MARYLAND AND THE DELMARVA PENINSULA

CITY           SKY/WX    TMP DP  RH WIND       PRES   REMARKS
PATUXENT RIVER MOCLDY    44  43  96 CALM      30.04S
BAY BRIDGE APT CLOUDY    45  41  87 CALM      30.05S
LEONARDTOWN    MOCLDY    43  39  87 CALM      30.05S
DOVER          CLOUDY    40  40 100 CALM      30.05R
GEORGETOWN     CLOUDY    44  40  85 CALM      30.05F
EASTON         CLOUDY    45  40  81 CALM      30.08S
CAMBRIDGE      NOT AVBL
SALISBURY      CLOUDY    43  42  97 CALM      30.05F
OCEAN CITY     MOCLDY    47  45  93 SW3       30.06S
WALLOPS ISLAND CLOUDY    43  43 100 CALM      30.06F
ACCOMACK*      CLOUDY    46  45  95 S5        30.05S
$$

NCZ012>017-030>032-221200-
NORTH CENTRAL AND EASTERN NORTH CAROLINA

CITY           SKY/WX    TMP DP  RH WIND       PRES   REMARKS
ROANOKE RAPIDS FAIR      43  43 100 CALM      30.05S
RALEIGH        MOCLDY    52  48  86 CALM      30.04R
ELIZABETH CITY CLOUDY    48  47  96 SE3       30.07R
AHOSKIE*         N/A     46  45  95 CALM      30.06S
EDENTON*       CLOUDY    47  45  91 CALM      30.07R
CURRITUCK*     MOCLDY    48  48 100 CALM      30.07S
KILL DEVIL HLS NOT AVBL
MANTEO         PTCLDY    46  46 100 CALM      30.08R
CAPE HATTERAS  PTCLDY    61  50  67 S7        30.05F
TARBORO*       NOT AVBL
GOLDSBORO      CLOUDY    46  46 100 CALM      30.03R
WASHINGTON     MOCLDY    45  44  97 CALM      30.05S
GREENVILLE     MOCLDY    45  45 100 CALM      30.07R
NEW BERN       MOCLDY    46  46 100 CALM      30.06S
WILMINGTON     CLEAR     53  52  96 SE6       30.02F
$$

VAZ048-221200-
ELSEWHERE

CITY           SKY/WX    TMP DP  RH WIND       PRES   REMARKS
HARRISBURG PA  CLOUDY    41  37  86 CALM      30.02S
BALTIMORE      CLOUDY    43  39  86 SE3       30.04R
ANNAPOLIS      PTCLDY    45  42  89 CALM      30.04S
ANDREWS AFB    PTCLDY    45  39  79 CALM      30.03R
PHILADELPHIA   CLOUDY    42  37  82 CALM      30.08R
HENDERSON NC   CLOUDY    47  44  87 CALM      30.04R
GREENSBORO     CLOUDY    51  51 100 E6        30.02S FOG
ROCKY MOUNT    CLOUDY    46  46 100 CALM      30.05S
$$

VAZ100-221200-
MARINE

STATION/POSITION TIME  TEMP    WIND        PRES    WAVE   SWELL
                       AIR SEA DIR/SP/G            HT/PER HT/PER
                 (UTC) (F)     (DEG/KT/KT) (MB)    (FT/S) (FT/S)
CAPE MAY NJ      1042   45 43  180/  3/  4 1017.7R
LEWES DE         1042   45 43  200/  4/  7 1017.5R
OCEAN-CITY-INLET 1042   45 43  200/  2/  3 1018.1F
WACHAPREAGUE VA  1042   46 48  200/  2/  2 1017.6F
THOMAS POINT MD  1100   43 42  160/  5/  6   N/A
GOOSES REEF MD   1100   43 43  140/  4/  4 1018.0    1
COVE POINT MD    1042   43     190/  6/  7 1017.8F
SOLOMONS ISLAND  1042   44 44   CALM  /  2   N/A
BISHOPS HEAD MD  1042   44 47  150/  4/  4 1017.6F
PINEY POINT MD   1048          170/  2/  3   N/A
POTOMAC MD       1100   44 45   CALM  /  2 1016.4    0
CAMBRIDGE MD     1042   44 42  130/  1/  2 1016.8S
LEWISETTA VA     1042   45 47     CALM     1017.0F
RAPPAHANNOCK LGT 1048          160/  5/  5 1018.1F
YORK RVR RNG VA  1042   45     120/  2/  2 1016.8F
YORKTOWN VA      1042   46 46   CALM  /  1 1017.2S
JAMESTOWN VA     1100   46 50  140/  2/  4   N/A     0
DOMINION TERM VA 1042   49     160/  5/  5 1017.4F
KIPTOPEKE VA     1048      46  170/  8/  9   N/A
CHES BAY BRIDGE  1036   51 46  180/ 11/ 12 1017.3F
CAPE HENRY VA    1036   54     180/  9/ 12   N/A
WILLOUBY STN VA  1036   49     190/  2/  3 1018.3F
S CRANEY ISL VA  1036   49     180/  7/  9 1017.3F
CAPE HENRY BUOY  1042      47                N/A     3/ 9
OFFSHORE WE BUOY 1051      47                N/A     4/ 9
64NM E OF VA BCH 1050   56 53  200/  6/  6 1018.0R   4/ 9   3/ 9
DUCK PIER NC     1036   49 48  160/  4/  4 1017.7R
44100 DUCK FRF   1035      47                N/A     3/ 9
44056 DUCK FRF   1030      48                N/A     4/ 9   2/11
OREGON INLET NC  1036   51 51  120/  4/  5 1018.0R
HATTERAS NC      1036   62 58  150/  6/  7 1017.4S
DIAMOND SHLS NC  1050   64 74  150/  8/ 12 1018.1F   4/ 8   3/ 8
CAPE LOOKOUT NC  1000   60     120/  3/  3 1017.2R
$$




USA.gov is the U.S. government's official web portal to all federal, state and local government web resources and services.